Wind_Speed
15 13 10 9 11 12 11 10 8 2 1 2 3 3 4 6 7 6 5 4 2 2 2 4 5 6 7 9 10 11 11 13 15 15 18 20 19 20
12 11 10 10 10 9 10 10 12 10 3 1 1 1 6 6 7 6 5 5 5 3 3 3 4 7 9 10 9 8 11 14 17 17 21 20 20 19
12 11 10 10 10 9 9 10 10 9 6 9 8 8 7 9 6 6 5 5 6 4 2 2 4 5 8 9 9 8 9 12 16 17 19 15 8 7
14 13 13 12 13 11 9 9 9 9 7 6 5 8 7 8 8 7 6 6 7 5 3 2 4 5 6 9 11 9 8 11 14 13 20 9 6 6
12 11 10 13 12 11 9 8 9 8 8 7 4 7 8 8 9 9 8 8 8 7 6 5 5 7 8 9 11 10 7 8 13 10 16 20 10 3
13 12 12 12 11 11 10 10 9 9 8 9 9 8 8 9 10 10 9 9 9 8 6 7 7 7 7 7 8 10 8 8 10 9 10 18 23 23
11 10 11 11 13 11 8 9 9 8 8 9 8 7 8 8 9 8 9 7 7 6 6 6 3 3 4 3 6 9 10 9 9 9 7 9 17 23
13 12 11 12 11 10 9 11 9 8 8 8 10 8 11 9 10 9 8 5 4 7 6 5 3 3 2 3 5 8 8 9 10 9 8 5 8 12
13 13 11 10 11 8 8 7 7 10 12 10 8 10 10 12 9 10 9 7 3 4 5 3 3 3 1 1 3 6 8 9 10 10 9 6 6 6
14 14 13 12 12 12 9 8 6 5 5 7 9 5 6 4 9 8 9 8 6 4 6 2 3 3 3 3 1 1 2 5 8 9 9 6 7 7
13 13 14 15 14 14 11 10 8 7 5 7 10 11 10 10 10 10 11 10 4 4 5 3 3 5 4 4 4 2 3 3 4 5 7 7 8 9
14 14 17 15 14 14 13 11 11 11 9 5 5 6 6 8 10 8 9 11 4 3 6 6 4 4 1 3 5 4 4 3 2 4 3 4 5 7
17 15 17 17 15 15 13 12 11 10 11 9 7 7 8 6 6 8 9 11 8 3 6 8 7 4 3 2 2 5 5 5 3 2 2 2 1 2
18 16 15 17 18 16 16 12 12 11 11 11 10 10 10 9 8 8 8 8 8 6 7 8 4 6 4 3 2 2 3 5 6 6 6 5 3 2
16 16 16 16 17 16 16 12 12 13 13 13 13 13 13 12 10 9 7 7 6 6 7 7 5 6 6 4 2 1 2 4 4 5 5 6 6 6
17 17 16 14 17 17 15 17 16 15 15 15 13 13 14 13 12 10 9 8 6 5 6 6 6 6 5 5 5 5 6 2 3 3 5 5 5 7
21 17 16 17 17 18 17 18 18 17 17 15 15 16 14 13 12 11 10 10 7 7 6 7 7 7 7 7 6 7 7 8 8 8 9 10 9 10
23 20 19 20 19 19 18 19 20 19 20 19 18 16 16 15 14 13 12 13 12 10 9 8 7 4 3 5 11 12 8 8 8 10 9 8 9 7
22 20 20 21 21 21 21 21 20 24 22 22 20 19 17 16 14 16 15 15 13 11 11 12 12 10 4 2 2 6 10 7 8 9 9 10 9 8
22 20 20 21 20 21 21 23 22 22 24 23 22 20 20 19 19 17 17 17 15 13 13 15 16 16 12 5 3 5 7 11 11 9 8 10 12 13
22 22 23 24 23 21 22 25 25 25 24 25 24 23 23 22 20 20 19 17 15 16 16 18 20 13 14 14 6 8 10 9 14 15 10 8 10 8
22 24 24 24 25 24 23 25 25 23 23 24 24 25 24 24 22 21 21 19 20 19 20 15 13 14 16 15 13 10 10 10 11 10 14 16 8 4
25 26 25 26 26 26 26 26 25 24 25 25 25 25 24 25 24 23 22 21 19 20 18 17 16 16 14 13 13 12 11 12 14 14 15 14 15 20
Wind_Direction
211 218 227 230 232 232 227 219 223 263 281 131 129 246 263 287 284 279 260 258 285 301 321 326 330 325 321 332 330 338 333 328 338 334 324 310 295 268
215 214 218 219 230 228 231 233 230 235 221 3 173 179 297 276 263 263 256 235 228 237 274 293 317 304 315 323 330 354 349 341 339 341 336 319 298 254
220 219 216 213 210 216 214 220 231 228 237 252 238 251 278 264 249 251 247 235 236 239 279 313 283 299 318 329 342 338 339 347 347 345 341 335 317 224
221 223 223 224 219 221 215 215 224 236 246 269 260 262 244 239 248 246 238 225 232 229 249 271 287 314 332 336 341 328 333 352 350 355 1 359 326 190
216 220 220 215 211 209 216 223 227 230 239 239 239 219 239 236 236 240 237 228 236 254 258 250 258 303 329 338 338 332 342 350 4 352 2 57 59 172
215 214 216 213 213 216 218 231 232 231 228 233 241 220 239 241 239 240 237 238 242 248 256 239 267 296 315 346 354 356 8 11 10 1 6 31 80 98
205 202 209 206 203 201 208 236 232 220 217 218 214 209 217 220 228 235 233 239 246 239 226 257 279 304 315 13 344 15 18 26 21 17 358 22 49 92
198 202 215 219 210 213 224 220 209 222 225 220 222 217 232 225 225 219 197 190 195 245 217 248 263 282 276 335 23 20 35 35 35 34 33 18 46 54
203 202 196 204 197 190 188 204 212 221 217 213 225 232 233 228 221 206 202 213 208 231 167 185 256 202 246 76 37 41 42 44 46 47 46 54 59 64
214 208 200 206 202 189 190 202 207 221 221 226 218 223 213 197 211 221 206 189 198 223 194 170 214 193 232 261 41 71 78 46 42 40 36 63 80 83
214 211 203 205 207 200 198 205 208 206 222 218 210 214 211 193 200 192 176 167 174 186 196 165 192 187 205 223 248 237 299 326 20 33 45 74 90 77
208 208 210 211 212 203 200 205 204 203 185 168 149 153 166 176 182 179 189 182 158 141 214 175 178 175 181 239 243 248 263 291 356 25 40 79 104 106
206 208 219 212 212 205 204 205 210 201 188 181 173 168 170 172 181 184 186 192 184 168 190 185 172 184 181 184 248 242 243 252 260 280 314 14 57 151
208 216 221 211 208 204 200 197 202 191 196 188 188 190 185 185 185 185 176 181 195 200 179 184 160 176 186 189 204 287 280 257 257 256 267 276 271 257
209 211 208 212 201 201 199 198 199 197 198 199 200 199 200 197 196 182 172 168 172 175 181 191 201 197 202 186 173 231 245 288 272 256 263 267 255 254
207 207 208 208 202 201 201 201 205 205 205 206 201 202 201 192 189 192 185 184 187 204 207 211 211 206 202 212 221 230 259 262 272 250 243 239 251 265
204 203 195 195 198 201 199 199 206 207 206 204 195 196 197 194 192 201 198 197 193 196 217 216 220 226 232 235 242 255 244 251 264 263 259 268 270 271
190 190 192 193 197 198 200 201 205 203 208 207 205 204 199 198 196 206 207 208 209 208 199 214 209 214 285 273 249 239 236 252 250 261 258 263 281 274
197 196 200 196 200 203 205 203 201 211 215 212 213 210 209 209 196 208 212 213 215 211 216 216 211 204 199 219 256 248 234 239 241 248 254 246 259 264
204 202 203 202 204 208 209 207 209 214 217 218 218 220 217 213 206 204 210 210 211 213 211 221 221 216 206 204 188 233 257 246 241 242 244 270 285 291
206 206 210 211 208 207 211 215 219 220 223 220 220 221 220 217 212 218 218 215 212 211 211 218 238 238 228 237 250 264 290 267 247 244 253 271 285 287
212 213 215 219 217 213 209 216 220 220 219 223 222 224 225 226 218 218 216 210 210 214 224 231 228 213 217 223 239 252 259 261 270 258 251 248 237 265
223 222 220 219 219 216 216 219 222 223 223 224 224 225 224 220 228 226 222 224 217 216 213 205 210 213 216 226 240 246 246 244 251 267 270 271 266 259
Height
801 804 803 804 807 811 811 810 812 815 812 811 812 812 813 814 816 816 814 816 815 817 817 815 815 814 814 813 810 811 807 808 805 801 800 798 795 796
800 797 799 803 805 808 809 811 812 810 810 812 810 812 814 812 814 813 813 813 814 814 813 812 812 815 814 810 808 805 807 806 804 799 794 792 787 787
795 797 797 799 800 802 804 808 810 810 808 809 810 810 811 812 811 811 812 813 814 814 812 812 813 812 812 810 807 805 804 802 802 798 792 788 784 782
791 795 795 795 798 799 801 803 804 806 806 807 809 809 810 811 810 810 811 811 811 811 812 812 813 811 809 808 808 805 803 801 801 796 793 788 785 783
789 791 794 796 796 797 798 801 803 802 802 805 806 807 808 808 810 809 808 808 809 811 810 812 812 811 808 808 808 806 802 800 799 798 796 787 786 783
788 790 792 793 792 795 797 800 801 800 799 801 803 805 806 807 808 807 807 807 808 809 809 810 809 808 808 808 808 805 801 800 801 799 797 792 787 786
787 788 789 790 789 790 792 796 797 797 797 797 800 802 803 803 804 804 805 806 807 809 809 808 807 807 807 808 807 805 803 802 802 800 798 797 793 790
783 785 786 786 785 785 788 792 794 794 795 796 798 799 799 799 802 802 801 804 807 806 806 806 806 806 807 806 806 806 806 805 804 802 801 799 799 796
778 779 781 785 784 781 784 786 788 790 792 794 792 794 796 795 798 800 800 803 803 803 804 805 806 806 807 807 807 807 807 807 805 804 802 802 801 802
776 777 777 779 780 782 784 785 786 788 788 793 793 794 794 790 794 797 800 801 801 801 802 803 804 805 806 806 807 808 807 807 806 805 804 804 804 804
774 775 774 775 776 779 782 782 786 788 787 789 790 790 789 790 793 795 796 799 800 800 800 802 803 804 805 806 807 807 807 807 806 805 805 805 806 807
770 770 770 772 773 773 779 781 783 785 785 786 785 787 788 789 792 793 794 796 797 798 799 802 802 804 805 805 806 806 806 807 807 807 806 806 808 809
764 763 765 766 769 773 774 779 781 781 782 785 786 786 789 789 791 791 791 793 795 796 797 799 800 802 804 805 805 805 806 806 806 807 807 807 808 809
756 759 761 763 766 768 771 775 776 779 781 783 784 786 788 787 789 790 790 791 794 795 796 797 799 801 803 804 804 804 804 804 805 805 806 807 808 808
754 758 760 760 761 764 767 769 773 776 778 779 782 784 785 785 787 788 789 790 792 794 795 797 798 800 802 802 803 803 803 803 803 804 805 805 806 807
749 752 753 755 757 760 764 767 769 772 774 777 779 780 782 783 784 785 787 789 791 792 794 795 797 799 799 800 800 801 802 803 802 803 804 804 805 806
742 745 748 751 755 758 760 761 765 769 771 773 774 777 778 779 781 783 785 787 789 790 791 793 795 797 797 798 798 798 799 801 801 802 802 803 803 804
736 739 742 745 749 751 753 757 760 763 766 769 771 772 773 775 778 780 783 785 787 788 789 791 793 795 795 794 795 796 798 799 799 799 800 800 800 801
728 732 735 738 742 745 748 751 754 758 762 764 765 767 770 772 775 777 779 782 783 785 786 788 791 792 793 794 793 794 795 796 797 797 798 798 798 799
723 726 729 733 737 740 743 746 749 753 756 758 760 762 765 768 770 773 775 777 779 782 784 785 787 788 789 790 790 791 792 793 794 795 796 795 795 795
716 720 723 726 730 734 737 740 743 747 749 752 754 757 760 762 765 767 770 773 775 778 779 780 781 784 786 787 788 787 788 788 790 791 792 792 792 791
711 714 717 721 724 728 732 734 737 741 744 746 748 751 754 756 759 761 764 767 769 772 774 777 779 780 782 783 783 785 786 786 786 787 788 789 790 789
705 708 711 715 718 722 725 728 731 734 737 739 741 744 747 750 752 756 759 761 764 767 770 773 774 776 778 780 781 781 782 783 783 783 783 783 783 783